Regional Weather Roundup
Issued by NWS

Home | Current Version | Previous Version | Graphics & Text | Print | Product List | Glossary On
Versions: 1 2 3 4 5 6 7 8 9 10 11 12 13 14 15 16 17 18 19 20 21 22 23 24 25 26 27 28 29 30 31 32 33 34 35 36 37 38 39 40 41 42 43 44 45 46 47 48 49 50
409
ASUS43 KFSD 182302
RWRSD

WEATHER ROUNDUP FOR SOUTH DAKOTA
NATIONAL WEATHER SERVICE SIOUX FALLS SD
600 PM CDT FRI AUG 18 2017

NOTE: "FAIR" INDICATES FEW OR NO CLOUDS BELOW 12,000 FEET WITH NO
SIGNIFICANT WEATHER AND/OR OBSTRUCTIONS TO VISIBILITY.


SDZ001>005-009-010-012>017-190000-
NORTHWEST AND NORTH CENTRAL SOUTH DAKOTA

CITY           SKY/WX    TMP DP  RH WIND       PRES   REMARKS
BUFFALO          N/A     87  42  20 N7        29.89F
FAITH            N/A     84  46  26 NE8       29.95F
MOBRIDGE       SUNNY     82  57  42 VRB3      29.92S
$$

SDZ012>016-024>037-041>051-057-063-072>074-190000-
SOUTHWEST AND SOUTH CENTRAL SOUTH DAKOTA

CITY           SKY/WX    TMP DP  RH WIND       PRES   REMARKS
RAPID CTY ARPT SUNNY     86  41  20 MISG      29.99F
PIERRE         SUNNY     82  50  32 N8        29.94S
CUSTER         MOSUNNY   79  35  20 VRB7      30.14F
ELLSWORTH AFB  SUNNY     85  43  23 S3        29.99F
PHILIP         SUNNY     88  42  20 NE14G20   29.94F
PINE RIDGE     SUNNY     87  47  24 E7        30.00F
SPEARFISH      LGT RAIN  84  41  21 N7G13     30.03F
WINNER         FAIR      84  54  35 N12       29.97S
$$

SDZ004>011-016>023-039-040-190000-
NORTHEAST SOUTH DAKOTA

CITY           SKY/WX    TMP DP  RH WIND       PRES   REMARKS
ABERDEEN       SUNNY     77  57  50 N10       29.91S
WATERTOWN      MOSUNNY   68  61  78 NE16      29.91R
BROOKINGS      PTSUNNY   73  61  65 NW18      29.88R
SISSETON         N/A     74  61  63 CALM      29.90R
$$

SDZ017-020-022-023-036>040-048>070-190000-
SOUTHEAST SOUTH DAKOTA

CITY           SKY/WX    TMP DP  RH WIND       PRES   REMARKS
SIOUX FALLS    PTSUNNY   80  66  62 W10       29.87F
HURON          SUNNY     76  58  53 N13       29.91R
CHAMBERLAIN    SUNNY     81  62  51 N10       29.95S
MITCHELL       SUNNY     77  59  53 NW16G24   29.92R
YANKTON        SUNNY     82  66  58 NW9       29.90R
$$

ABBREVIATIONS USED IN REMARKS
   TC - TEMPERATURE IN CELSIUS
  WCI - WIND CHILL INDEX
   HX - HEAT INDEX
  VSB - VISIBILITY





USA.gov is the U.S. government's official web portal to all federal, state and local government web resources and services.